[[{"header":{"parameterUnit":"m.s-1","parameterCategory":1,"la1":30.2991,"la2":30.254,"lo1":-89.0895,"lo2":-89.0444,"dy":0.0017,"dx":0.0017,"nx":28,"ny":28,"refTime":"2023-07-19T09:00:00:Z","depth":0,"parameterNumber":2,"parameterNumberName":"U-component_of_WINDS"},"data":[0,0,0,0,0,0,0,0,0,0,0,0,0,0,0,0,0,0,0,0,0,0,0,0,0,0,0,0,0,0,0,0,0,0,0,0,0,0,0,0,0,0,0,0,0,0,0,0,0,0,0,0,0,0,0,0,0,0,2.9012,2.9013,0,2.9054,2.9055,2.9055,2.9037,2.9036,2.9035,2.9034,2.9079,2.9081,2.9083,0,0,0,0,0,0,0,0,0,0,0,0,0,2.8917,2.8919,2.9012,2.9013,2.9013,2.9054,2.9055,2.9055,2.9037,2.9036,2.9034,2.9033,2.9078,2.908,2.9083,0,0,0,0,0,0,0,0,0,0,0,0,0,2.8959,2.892,2.9012,2.9009,2.9009,2.9054,2.9055,2.9056,2.9037,2.9035,2.9034,2.9032,2.9077,2.908,2.9083,2.9135,0,0,2.9093,2.9095,0,0,0,0,0,0,0,0,2.8957,2.8963,2.9009,2.9009,2.9009,2.9039,2.9038,2.9082,2.9037,2.9026,2.9034,2.9032,2.9067,2.9071,2.9082,2.9137,2.9139,2.9094,2.9096,2.9097,2.9098,0,0,0,0,0,0,0,2.8954,2.8961,2.9029,2.901,2.901,2.9006,2.901,2.9046,2.9055,2.9027,2.9026,2.9031,2.9067,2.9079,2.9083,2.914,2.9094,2.9096,2.9098,2.91,2.9239,2.9241,0,0,0,0,0,0,2.8951,2.8958,2.9028,2.903,2.8979,2.9009,2.9014,2.9031,2.9054,2.9057,2.9032,2.903,2.9074,2.9079,2.9085,2.9147,2.9097,2.91,2.9102,2.9238,2.924,2.9242,0,0,0,0,0,0,2.8949,2.8957,2.9026,2.8994,2.9002,2.9012,2.9032,2.9033,2.9045,2.9058,2.906,2.9044,2.9073,2.908,2.9122,2.9148,2.9102,2.9105,2.9236,2.9238,2.9241,2.9271,0,0,0,0,0,0,2.8946,2.8956,2.8976,2.8995,2.9004,2.9063,2.9033,2.9034,2.905,2.9048,2.9069,2.9071,2.9072,2.9118,2.9126,2.9152,2.9107,2.9233,2.9237,2.924,2.9268,2.9275,2.928,0,0,0,0,0,2.8943,2.8983,2.8977,2.8985,2.9028,2.9064,2.907,2.907,2.9052,2.9072,2.9081,2.9071,2.9144,2.9122,2.9131,2.9158,2.9232,2.9236,2.924,2.9265,2.9273,2.928,0,0,0,0,0,0,2.8968,2.8985,2.8979,2.9026,2.9044,2.9061,2.9086,2.9078,2.9102,2.9098,2.9098,2.9103,2.9147,2.9157,2.9133,2.921,2.9185,2.9191,2.9202,2.921,2.9215,2.9212,2.911,0,0,0,0,0,2.8978,2.9005,2.902,2.906,2.9069,2.9076,2.9092,2.909,2.9109,2.9116,2.9128,2.9147,2.9174,2.9192,2.9218,2.9269,2.9274,2.9293,2.9299,2.9304,2.9309,2.9337,2.9346,2.9255,2.9255,2.9255,0,0,2.9001,2.9014,2.9032,2.9066,2.9079,2.9108,2.9083,2.9114,2.9135,2.9121,2.9162,2.9171,2.9193,2.924,2.9261,2.9249,2.9335,2.9309,2.9312,2.9315,2.9342,2.9351,2.9358,2.9257,2.9257,2.9256,0,0,2.9058,2.907,2.9105,2.9119,2.914,2.9144,2.9153,2.9171,2.9177,2.9217,2.9207,2.9233,2.928,2.9296,2.931,2.9372,2.9364,2.9381,2.9413,2.944,2.9448,2.9454,2.9477,2.9485,2.9386,2.9386,2.9386,0,2.9084,2.9126,2.9125,2.9157,2.9172,2.916,2.9196,2.921,2.9238,2.9249,2.9236,2.9294,2.9308,2.9359,2.9374,2.9385,2.9396,2.9379,2.9447,2.9453,2.9459,2.9481,2.9489,2.9388,2.9388,2.9388,2.9387,0,2.9157,2.9187,2.9213,2.924,2.9258,2.9292,2.9296,2.9315,2.9312,2.9318,2.936,2.9376,2.9405,2.9417,2.9414,2.9467,2.9459,2.9446,2.9422,2.947,2.949,2.9498,2.9391,2.939,2.939,2.9389,0,0,2.9231,2.9256,2.9266,2.9278,2.93,2.9323,2.9357,2.9385,2.9401,2.9421,2.945,2.949,2.9478,2.9494,2.9493,2.9517,2.9566,2.9501,2.9501,2.9513,2.9626,2.9636,2.9646,2.956,2.9562,2.9563,2.9624,0,2.9289,2.9348,2.9347,2.9402,2.9429,2.9418,2.9447,2.9464,2.9471,2.9496,2.9503,2.9531,2.9513,2.9523,2.9546,2.9555,2.9589,2.955,2.9588,2.9589,2.9583,2.9656,2.9667,2.9724,2.9632,2.9634,2.9635,0,2.9366,2.9387,2.9444,2.9462,2.9474,2.95,2.9526,2.9549,2.9568,2.9571,2.9589,2.9585,2.962,2.9594,2.9642,2.9616,2.9631,2.9638,2.964,2.9644,2.9615,2.9663,2.9743,2.9751,2.9647,2.9646,2.9645,0,2.9414,2.9458,2.9498,2.9508,2.953,2.9549,2.9559,2.9577,2.9593,2.9616,2.9627,2.9653,2.9668,2.9689,2.9692,2.9673,2.9741,2.9715,2.9745,2.9745,2.976,2.9759,2.9844,2.9769,2.9769,2.9769,2.9769,0,2.948,2.9515,2.952,2.9544,2.9584,2.9583,2.9622,2.9631,2.9647,2.9673,2.9665,2.969,2.9692,2.9718,2.9721,2.9761,2.9768,2.9772,2.9772,2.9773,2.9772,2.9783,2.9779,2.9771,2.9771,2.977,2.977,0,2.9541,2.9545,2.9588,2.9605,2.961,2.9638,2.9653,2.9677,2.9682,2.9716,2.9724,2.9733,2.9763,2.9768,2.9804,2.9806,2.9854,2.985,2.9847,2.9847,2.9876,2.9874,2.9972,2.9985,2.9901,2.9902,2.9902,0,2.9583,2.961,2.9629,2.9646,2.9657,2.9685,2.9701,2.9702,2.972,2.9744,2.9765,2.9794,2.9818,2.9867,2.9877,2.9904,2.9901,2.9933,2.9905,2.9905,2.9902,2.9901,2.9904,2.9939,2.994,2.9941,2.9941,0,2.9657,2.9658,2.9682,2.9707,2.9728,2.9748,2.9767,2.9781,2.9784,2.9805,2.9836,2.9854,2.989,2.9919,2.9946,2.9957,2.9951,2.995,2.9959,2.996,2.9957,2.9959,2.9862,2.9948,2.9947,2.9947,2.9946,2.9946,2.971,2.9734,2.9751,2.9779,2.9793,2.9811,2.9834,2.9842,2.9867,2.9896,2.9895,2.9929,2.9948,2.9983,2.9996,3.0023,3.0013,3.0025,3.0028,3.0031,3.0034,2.9952,3.0028,3.0028,3.0028,3.0027,3.0027,0,2.9784,2.9795,2.982,2.9847,2.9869,2.9859,2.9879,2.9899,2.9928,2.9946,2.9969,3.0004,3.0033,3.0045,3.0073,3.0092,3.009,3.01,3.0098,3.0101,3.0042,3.0032,3.0101,3.0101,3.0101,3.0101,3.0101,3.0101,2.9825,2.9865,2.9868,2.9914,2.9924,2.9957,2.9969,2.9986,3.0,3.004,3.0063,3.0071,3.0086,3.0116,3.0142,3.0144,3.0155,3.0167,3.0169,3.0113,3.0105,3.0098,3.0089,3.0169,3.0169,3.0226,3.0226,3.0227]},{"header":{"parameterUnit":"m.s-1","parameterCategory":1,"la1":30.2991,"la2":30.254,"lo1":-89.0895,"lo2":-89.0444,"dy":0.0017,"dx":0.0017,"nx":28,"ny":28,"refTime":"2023-07-19T09:00:00:Z","depth":0,"parameterNumber":3,"parameterNumberName":"V-component_of_WINDS"},"data":[0,0,0,0,0,0,0,0,0,0,0,0,0,0,0,0,0,0,0,0,0,0,0,0,0,0,0,0,0,0,0,0,0,0,0,0,0,0,0,0,0,0,0,0,0,0,0,0,0,0,0,0,0,0,0,0,0,0,-0.2494,-0.2495,0,-0.254,-0.2541,-0.2541,-0.2567,-0.2567,-0.2567,-0.2567,-0.2613,-0.2614,-0.2615,0,0,0,0,0,0,0,0,0,0,0,0,0,-0.2428,-0.2429,-0.2494,-0.2495,-0.2495,-0.254,-0.2541,-0.2542,-0.2567,-0.2567,-0.2567,-0.2567,-0.2613,-0.2614,-0.2616,0,0,0,0,0,0,0,0,0,0,0,0,0,-0.2464,-0.243,-0.2494,-0.2513,-0.2516,-0.254,-0.2541,-0.2542,-0.2567,-0.2567,-0.2567,-0.2567,-0.2612,-0.2614,-0.2616,-0.2624,0,0,-0.2621,-0.2622,0,0,0,0,0,0,0,0,-0.2462,-0.2466,-0.251,-0.2512,-0.2515,-0.2548,-0.2535,-0.2569,-0.2567,-0.2547,-0.2567,-0.2567,-0.2591,-0.2595,-0.2603,-0.2626,-0.2628,-0.2621,-0.2622,-0.2623,-0.2624,0,0,0,0,0,0,0,-0.2459,-0.2464,-0.2512,-0.2511,-0.2513,-0.252,-0.2525,-0.2541,-0.2568,-0.2549,-0.2551,-0.2556,-0.2593,-0.2601,-0.2604,-0.2629,-0.2621,-0.2623,-0.2624,-0.2625,-0.2664,-0.2664,0,0,0,0,0,0,-0.2454,-0.2462,-0.2511,-0.2514,-0.2488,-0.2521,-0.2527,-0.2537,-0.2568,-0.2573,-0.2556,-0.2557,-0.2598,-0.2602,-0.2606,-0.262,-0.2623,-0.2625,-0.2626,-0.2664,-0.2664,-0.2664,0,0,0,0,0,0,-0.2452,-0.2458,-0.2509,-0.2489,-0.2496,-0.2522,-0.2533,-0.2538,-0.2547,-0.2573,-0.2578,-0.256,-0.2599,-0.2604,-0.262,-0.2621,-0.2625,-0.2627,-0.2664,-0.2664,-0.2664,-0.2645,0,0,0,0,0,0,-0.245,-0.2457,-0.246,-0.2488,-0.2497,-0.2522,-0.2533,-0.2539,-0.255,-0.2552,-0.2578,-0.2583,-0.2599,-0.2617,-0.2622,-0.2624,-0.2628,-0.2664,-0.2664,-0.2664,-0.2646,-0.2645,-0.2644,0,0,0,0,0,-0.2448,-0.2453,-0.246,-0.2466,-0.2501,-0.2522,-0.2527,-0.2546,-0.255,-0.2554,-0.2571,-0.2582,-0.262,-0.2619,-0.2624,-0.2627,-0.2664,-0.2664,-0.2664,-0.2646,-0.2645,-0.2644,0,0,0,0,0,0,-0.2424,-0.2457,-0.2466,-0.248,-0.2498,-0.2526,-0.2532,-0.2543,-0.256,-0.2561,-0.2584,-0.2589,-0.2604,-0.2617,-0.2614,-0.2637,-0.2643,-0.2644,-0.2628,-0.2627,-0.2626,-0.2623,-0.263,0,0,0,0,0,-0.242,-0.2434,-0.2462,-0.2472,-0.2481,-0.2505,-0.2515,-0.2528,-0.2547,-0.2555,-0.2573,-0.2592,-0.2608,-0.2618,-0.2635,-0.2648,-0.2655,-0.2652,-0.2651,-0.265,-0.2651,-0.266,-0.266,-0.2664,-0.2664,-0.2664,0,0,-0.2413,-0.2433,-0.244,-0.2468,-0.2484,-0.2498,-0.2511,-0.2525,-0.2537,-0.2557,-0.2574,-0.2588,-0.261,-0.2626,-0.2633,-0.2637,-0.2651,-0.265,-0.2649,-0.265,-0.266,-0.266,-0.2659,-0.2664,-0.2664,-0.2664,0,0,-0.2407,-0.2423,-0.2434,-0.245,-0.2473,-0.2489,-0.2492,-0.2519,-0.2529,-0.2547,-0.2563,-0.2577,-0.2604,-0.262,-0.2631,-0.2633,-0.2644,-0.2637,-0.2631,-0.264,-0.264,-0.264,-0.2641,-0.2642,-0.2638,-0.2638,-0.2638,0,-0.2395,-0.2417,-0.2438,-0.2452,-0.2464,-0.2484,-0.2496,-0.251,-0.2538,-0.2546,-0.2549,-0.2586,-0.2602,-0.2621,-0.2622,-0.263,-0.2635,-0.2634,-0.2638,-0.2638,-0.2639,-0.264,-0.2641,-0.2637,-0.2637,-0.2637,-0.2637,0,-0.2402,-0.2417,-0.2423,-0.245,-0.2463,-0.2476,-0.2499,-0.2509,-0.2522,-0.2537,-0.2556,-0.2576,-0.2598,-0.2603,-0.2615,-0.2625,-0.2627,-0.2634,-0.2641,-0.2637,-0.2639,-0.264,-0.2636,-0.2636,-0.2636,-0.2637,0,0,-0.2381,-0.2421,-0.2423,-0.2436,-0.2465,-0.2477,-0.2491,-0.2513,-0.2522,-0.2541,-0.2553,-0.2577,-0.2585,-0.2598,-0.2611,-0.2619,-0.2621,-0.2626,-0.2626,-0.2625,-0.2634,-0.2629,-0.263,-0.2628,-0.2628,-0.2628,-0.2633,0,-0.238,-0.2407,-0.2426,-0.2445,-0.2461,-0.248,-0.2493,-0.2512,-0.2527,-0.2542,-0.2559,-0.2576,-0.2584,-0.2592,-0.2601,-0.2618,-0.2623,-0.2618,-0.2641,-0.2641,-0.2635,-0.2631,-0.2625,-0.2628,-0.2634,-0.2634,-0.2634,0,-0.2383,-0.2402,-0.2422,-0.2451,-0.2458,-0.2469,-0.2491,-0.2505,-0.2527,-0.2538,-0.2553,-0.2568,-0.2584,-0.2589,-0.2612,-0.2608,-0.2619,-0.2629,-0.263,-0.2633,-0.2638,-0.2634,-0.2629,-0.263,-0.2635,-0.2635,-0.2635,0,-0.2367,-0.2398,-0.2415,-0.2425,-0.2458,-0.2466,-0.248,-0.2502,-0.2514,-0.2534,-0.2542,-0.2563,-0.2574,-0.259,-0.261,-0.2612,-0.2632,-0.2638,-0.2641,-0.2641,-0.2645,-0.2644,-0.2642,-0.265,-0.265,-0.265,-0.265,0,-0.2364,-0.2376,-0.2408,-0.2419,-0.2433,-0.2456,-0.247,-0.2485,-0.2505,-0.2519,-0.2537,-0.255,-0.2576,-0.2591,-0.2607,-0.2624,-0.2629,-0.2639,-0.2643,-0.2637,-0.2636,-0.2645,-0.2645,-0.265,-0.265,-0.265,-0.265,0,-0.2349,-0.2371,-0.2391,-0.2421,-0.2429,-0.2439,-0.2465,-0.2476,-0.2492,-0.251,-0.2515,-0.2541,-0.2561,-0.2583,-0.261,-0.262,-0.2637,-0.2642,-0.263,-0.2632,-0.2635,-0.2634,-0.2638,-0.264,-0.2646,-0.2646,-0.2646,0,-0.2346,-0.2357,-0.2388,-0.2399,-0.2413,-0.243,-0.2443,-0.2466,-0.2479,-0.2506,-0.2514,-0.2535,-0.2554,-0.2585,-0.2606,-0.2627,-0.2634,-0.2633,-0.2637,-0.2632,-0.2635,-0.2634,-0.2636,-0.2632,-0.2632,-0.2632,-0.2632,0,-0.2339,-0.235,-0.2368,-0.2391,-0.2406,-0.2425,-0.2444,-0.2452,-0.2479,-0.2492,-0.2513,-0.2528,-0.2556,-0.2577,-0.2601,-0.2616,-0.2628,-0.2631,-0.2633,-0.2628,-0.262,-0.2625,-0.2628,-0.2631,-0.2631,-0.2631,-0.2631,-0.2631,-0.2331,-0.2342,-0.2366,-0.2386,-0.2403,-0.2421,-0.2434,-0.2452,-0.247,-0.2495,-0.2508,-0.2529,-0.2552,-0.2586,-0.26,-0.2617,-0.2621,-0.2623,-0.2624,-0.2625,-0.2624,-0.2617,-0.2621,-0.2621,-0.2621,-0.2621,-0.2621,0,-0.2326,-0.2343,-0.2361,-0.2388,-0.2404,-0.2416,-0.2438,-0.2451,-0.2469,-0.249,-0.2508,-0.2533,-0.2554,-0.2577,-0.26,-0.2609,-0.2616,-0.2614,-0.2614,-0.2617,-0.2619,-0.2615,-0.2609,-0.2609,-0.2609,-0.2609,-0.2609,-0.2609,-0.2325,-0.2344,-0.2358,-0.2385,-0.2402,-0.2423,-0.2435,-0.2452,-0.2469,-0.2496,-0.2514,-0.2529,-0.2551,-0.2576,-0.2596,-0.2602,-0.261,-0.2607,-0.2615,-0.2616,-0.2617,-0.2618,-0.2615,-0.2609,-0.2609,-0.2613,-0.2613,-0.2613]}]]